Regional Weather Roundup
Issued by NWS State College, PA

Home | Current Version | Previous Version | Text Only | Print | Product List | Glossary On
Versions: 1 2 3 4 5 6 7 8 9 10 11 12 13 14 15 16 17 18 19 20 21 22 23 24 25 26 27 28 29 30 31 32 33 34 35 36 37 38 39 40 41 42 43 44 45 46 47 48 49 50
000
ASUS41 KCTP 310910
RWRCTP

REGIONAL WEATHER ROUNDUP
NATIONAL WEATHER SERVICE STATE COLLEGE PA
400 AM EST SAT JAN 31 2015

Note: "fair" indicates few or no clouds below 12,000 feet with no
significant weather and/or obstructions to visibility.

* = STATION THAT DOES NOT REPORT PRECIPITATION /E.G. RAIN...SNOW...ETC/
    THUNDER OR FOG.

PAZ002>004-007>009-013>016-020>023-029>032-311000-
WESTERN PENNSYLVANIA

CITY           SKY/WX    TMP DP  RH WIND       PRES   REMARKS
ERIE           PTCLDY     8   3  80 SW6       30.35F WCI  -2
MEADVILLE      PTCLDY     5   1  83 SW5       30.29F WCI  -4
FRANKLIN*      PTCLDY     1  -2  85 SW5       30.29F WCI  -8
NEW CASTLE     FAIR       1  -2  88 CALM      30.36F
BEAVER COUNTY  NOT AVBL
BUTLER*        PTCLDY     3   0  85 CALM      30.34S
PITTSBURGH INT PTCLDY     5   1  83 CALM      30.34F
PITTSBURGH     CLEAR      8   0  69 SW9       30.33F WCI  -5
INDIANA*       CLOUDY    10   5  79 W12       30.33F WCI  -4
LATROBE        CLEAR      7   1  78 SW7       30.36F WCI  -5
WASHINGTON CO* CLEAR      0  -6  78 CALM      30.36F
$$

PAZ004>006-010>012-017>019-024>028-033>037-041-042-045-046-049>053-311000-
CENTRAL PENNSYLVANIA

CITY           SKY/WX    TMP DP  RH WIND       PRES   REMARKS
BRADFORD       CLOUDY     7   0  73 NW10      30.18F WCI  -8
DUBOIS         CLOUDY     9   3  77 W7        30.22F WCI  -2
CLEARFIELD     CLOUDY     8   1  73 NW8       30.25F WCI  -4
JOHNSTOWN      LGT SNOW   7   2  80 W10       30.17F WCI  -8
ALTOONA        CLOUDY    20   3  48 NW17G23   30.23F WCI   5
STATE COLLEGE  PTCLDY     9  -1  66 W8        30.26F WCI  -4
WILLIAMSPORT   CLEAR      9  -4  55 W13       30.29R WCI  -7
SELINSGROVE    CLEAR     10  -5  50 NW12      30.29S WCI  -5
FT INDIANTOWN  CLEAR     11  -6  45 W14G26    30.23S WCI  -4
CAPITAL CITY   CLEAR     13  -3  49 NW21G28   30.26S WCI  -5
HARRISBURG     CLEAR     13  -3  49 NW15G24   30.26S WCI  -3
YORK           CLEAR     13  -3  49 NW10      30.25S WCI   0
$$

PAZ038>040-043-044-047-048-054-055-060>062-067>071-311000-
EASTERN PENNSYLVANIA

CITY           SKY/WX    TMP DP  RH WIND       PRES   REMARKS
SCRANTON       CLOUDY     9  -3  58 NW10      30.17R WCI  -5
MOUNT POCONO   CLOUDY     4  -4  69 NW21G36   29.96R BLWGSNOWWCI -17
ALLENTOWN      CLEAR     11  -3  53 NW16G23   30.17S WCI  -6
QUAKERTOWN*    SUNNY     10   0  61 NW12G21   30.15R WCI  -4
READING        CLEAR     12  -2  53 NW24G35   30.20R WCI  -8
LANCASTER      CLEAR     12  -4  48 NW15G23   30.23S WCI  -4
COATESVILLE    SUNNY     14   1  57 NW16G24   30.17R WCI  -2
POTTSTOWN      CLEAR     12  -3  51 NW14G21   30.19S WCI  -3
BLUE BELL      CLEAR     14   1  57 W10G20    30.16R WCI   1
DOYLESTOWN     CLEAR     11  -2  56 NW14G26   30.13S WCI  -5
WILLOW GROVE   NOT AVBL
NORTH PHILA    FAIR      16  -2  45 NW15G28   30.18S WCI   1
PHILADELPHIA   CLEAR     16  -3  43 NW22G30   30.21R WCI  -2
$$



USA.gov is the U.S. government's official web portal to all federal, state and local government web resources and services.